Total_Precipitation_Accumulation
3.72 3.68 3.64 3.60 3.55 3.50 3.72 3.87 3.78 4.09 4.27 3.85 3.41 3.21 3.20 3.32 3.24 3.26 3.04 2.86 2.86 3.13 3.66 4.02 3.96 3.79 3.62 3.48 3.48 3.47 3.31 3.00 2.75 2.50 2.37 2.46 2.48 2.44 2.40 2.40 2.31 2.20 2.11
3.91 4.00 3.82 3.66 3.42 3.31 3.41 3.58 3.73 4.20 4.21 4.01 3.62 3.35 3.15 3.10 2.92 2.88 2.98 3.16 3.02 2.96 3.18 3.67 4.11 4.16 4.09 3.87 3.64 3.59 3.54 3.46 3.20 2.67 2.40 2.45 2.54 2.54 2.51 2.48 2.34 2.15 2.02
3.71 3.69 3.45 3.29 3.24 3.33 3.54 3.54 3.76 3.93 3.66 3.74 3.60 3.34 3.02 2.74 2.58 2.60 2.79 3.03 2.94 2.93 3.20 3.48 3.80 4.07 4.32 4.47 4.33 4.16 3.84 3.54 3.36 3.02 2.68 2.49 2.45 2.42 2.34 2.33 2.31 2.16 1.97
3.19 3.48 3.23 3.10 3.40 3.43 3.56 3.86 4.05 3.95 3.97 4.02 3.69 3.24 2.94 2.79 2.43 2.37 2.41 2.60 2.83 2.60 3.00 3.36 3.51 3.71 4.22 4.83 5.05 4.98 4.58 4.15 3.82 3.54 3.22 2.89 2.71 2.50 2.27 2.11 2.12 2.04 1.86
3.02 3.35 3.38 3.48 3.52 3.66 3.74 3.54 4.01 4.07 4.02 4.06 3.52 3.26 2.90 2.61 2.44 2.27 2.18 2.18 2.45 2.71 2.82 2.93 3.18 3.42 3.99 4.92 5.39 5.47 5.34 4.87 4.22 3.99 3.83 3.57 3.36 3.00 2.61 2.34 2.18 2.00 1.85
3.07 3.50 3.39 3.39 3.45 3.70 3.82 3.76 3.93 3.98 3.72 3.72 3.31 3.26 2.84 2.33 2.23 2.18 2.01 2.05 2.21 2.31 2.69 3.06 3.39 3.11 3.44 4.14 4.70 5.33 5.70 5.41 4.72 4.31 4.34 4.22 4.06 3.70 3.13 2.72 2.49 2.24 2.06
3.11 3.60 3.35 3.64 3.57 3.63 3.70 3.73 3.90 3.81 3.52 3.70 3.81 3.39 2.75 2.28 2.26 2.04 2.01 2.08 2.13 2.19 2.66 3.24 3.50 3.34 3.03 3.10 3.55 4.18 5.05 5.42 5.11 4.65 4.49 4.45 4.48 4.25 3.67 3.20 2.92 2.61 2.37
3.31 3.35 3.60 3.57 3.66 3.83 3.80 3.76 3.90 3.68 3.32 3.60 4.00 4.10 3.35 2.90 2.37 1.80 1.95 2.13 2.39 2.51 2.64 2.87 3.05 3.29 3.30 3.47 3.22 3.22 4.07 5.01 5.38 5.16 4.77 4.40 4.31 4.24 3.96 3.71 3.35 3.07 2.86
3.54 3.56 3.54 3.50 3.55 3.36 3.46 3.56 3.58 3.60 3.54 3.44 3.76 4.19 3.75 3.26 2.78 2.10 1.96 2.06 2.37 2.67 2.67 2.72 2.78 3.10 3.30 3.78 3.91 3.53 3.39 3.93 4.80 5.55 5.45 4.78 4.24 4.05 4.00 3.91 3.81 3.55 3.26
3.33 3.17 3.11 3.30 3.35 3.13 3.23 2.89 3.08 3.29 3.31 3.17 3.46 3.54 3.55 3.56 3.47 2.75 2.26 2.07 2.19 2.41 2.57 2.50 2.59 2.91 3.26 3.69 4.05 3.81 3.22 3.05 3.56 4.66 5.33 5.21 4.74 4.29 4.01 4.02 4.29 4.28 3.88
3.06 2.73 2.77 3.02 3.01 2.94 2.87 2.77 2.99 2.86 2.81 2.91 3.16 3.35 3.42 3.53 3.39 3.18 2.69 2.64 2.58 2.42 2.39 2.41 2.63 2.83 3.10 3.46 3.93 3.70 3.42 3.16 2.99 3.23 3.93 4.52 4.73 4.60 4.44 4.65 5.13 5.41 5.20
2.78 2.48 2.39 2.62 2.77 2.84 2.83 2.81 2.91 2.82 2.88 3.00 2.99 3.04 3.29 3.33 3.31 3.40 2.89 2.72 2.76 2.49 2.39 2.51 2.58 2.84 2.94 3.16 3.27 3.39 3.30 3.11 2.92 2.88 3.11 3.51 3.86 4.20 4.35 4.67 5.21 5.71 5.97
2.43 2.38 2.40 2.57 2.63 2.71 2.60 2.69 2.77 2.78 2.94 3.02 2.93 2.85 2.97 3.01 3.14 3.42 3.34 2.97 2.81 2.60 2.67 2.59 2.47 2.58 2.54 2.71 2.90 2.99 2.73 2.57 2.45 2.44 2.54 2.72 2.83 3.19 3.53 4.02 4.66 5.18 5.53
2.41 2.52 2.52 2.40 2.37 2.47 2.35 2.66 2.60 2.64 2.89 2.98 2.69 2.97 3.00 2.98 3.27 3.52 3.63 3.73 3.33 2.97 2.89 2.83 2.67 2.46 2.51 2.55 2.63 2.60 2.35 2.28 1.98 1.96 2.05 2.19 2.32 2.48 2.78 3.14 3.71 4.12 4.24
2.46 2.61 2.59 2.52 2.41 2.47 2.60 2.88 2.80 2.73 2.96 2.94 2.95 3.18 3.13 3.04 3.17 3.32 3.56 3.84 3.93 3.48 3.20 3.16 2.97 2.61 2.51 2.54 2.58 2.30 2.34 2.29 2.00 1.87 1.78 1.75 1.87 2.00 2.08 2.32 2.69 2.92 3.08
2.34 2.58 2.74 2.64 2.49 2.51 2.68 2.88 2.84 2.98 3.16 3.20 3.29 3.39 3.34 3.14 3.23 3.28 3.35 3.60 3.95 3.86 3.40 2.99 2.79 2.50 2.37 2.21 2.47 2.22 2.26 2.28 2.06 1.90 1.73 1.65 1.68 1.73 1.73 1.79 2.02 2.27 2.45
2.43 2.50 2.61 2.60 2.51 2.54 2.67 2.74 2.70 3.03 3.18 3.21 3.19 3.20 3.17 3.33 3.32 3.21 3.31 3.49 3.79 3.88 3.44 2.84 2.69 2.66 2.68 2.56 2.57 2.39 2.24 2.20 2.00 1.91 1.73 1.67 1.67 1.69 1.72 1.72 1.79 1.93 2.00
2.44 2.39 2.45 2.45 2.32 2.36 2.58 2.59 2.65 3.01 3.23 3.05 3.03 3.05 2.81 2.92 3.04 2.87 3.01 3.09 3.24 3.50 3.40 3.02 2.92 2.88 2.87 2.79 2.79 2.73 2.43 2.16 1.89 1.90 1.71 1.65 1.68 1.68 1.70 1.70 1.74 1.79 1.91
2.17 2.18 2.19 2.22 2.29 2.49 2.57 2.54 2.59 2.62 2.67 2.72 2.94 3.06 2.86 2.85 2.73 2.74 2.79 2.76 2.84 2.95 3.22 3.10 2.90 2.96 2.91 2.94 2.90 2.70 2.49 2.34 1.93 1.86 1.84 1.73 1.67 1.62 1.60 1.60 1.63 1.75 1.98
1.97 2.04 2.14 2.24 2.33 2.42 2.44 2.54 2.61 2.51 2.48 2.54 2.71 2.81 2.78 2.69 2.58 2.69 2.61 2.64 2.73 2.91 3.11 3.16 3.00 3.10 3.09 3.07 3.16 2.92 2.93 2.73 2.43 2.09 2.04 1.91 1.87 1.83 1.73 1.61 1.57 1.63 1.86
2.04 2.13 2.21 2.24 2.25 2.21 2.13 2.23 2.32 2.37 2.53 2.46 2.36 2.31 2.28 2.32 2.30 2.36 2.20 2.41 2.69 2.85 2.94 2.97 2.96 3.14 3.28 3.37 3.20 3.15 3.19 3.11 2.83 2.46 2.30 2.07 2.01 1.90 1.91 1.87 1.75 1.66 1.68
2.20 2.21 2.16 2.21 2.17 1.87 2.09 2.17 2.18 2.29 2.43 2.42 2.27 2.10 1.97 1.94 1.88 1.91 1.89 2.01 2.32 2.53 2.67 2.82 2.80 2.91 3.13 3.35 3.51 3.50 3.37 3.26 3.11 2.89 2.79 2.64 2.45 2.37 2.25 2.07 2.01 1.86 1.74
2.34 2.27 2.17 2.16 2.17 2.24 2.33 2.13 1.98 1.94 2.05 2.10 2.06 2.01 1.74 1.65 1.85 1.80 1.87 1.85 1.87 2.04 2.22 2.48 2.56 2.51 2.73 3.05 3.39 3.31 3.48 3.54 3.40 3.36 3.37 3.16 2.83 2.60 2.32 2.15 2.06 1.78 1.64
2.48 2.48 2.40 2.31 2.29 2.27 2.25 2.03 2.00 1.89 1.90 1.92 1.94 1.97 1.93 1.85 1.91 2.04 2.02 1.92 1.79 1.77 1.91 1.99 2.08 2.22 2.48 2.86 3.20 3.17 3.26 3.36 3.35 3.31 3.35 3.25 2.90 2.69 2.40 2.24 2.24 1.94 1.65
2.55 2.49 2.43 2.45 2.40 2.41 2.46 2.24 2.24 2.05 2.06 2.08 2.13 2.15 2.10 1.98 2.14 2.09 1.97 1.93 1.88 1.87 1.98 2.10 2.02 2.09 2.33 2.51 2.75 2.85 2.85 2.97 2.85 2.74 2.92 3.09 3.00 2.89 2.70 2.47 2.32 2.15 1.74
2.58 2.59 2.59 2.55 2.54 2.55 2.77 2.58 2.43 2.24 2.24 2.25 2.37 2.38 2.43 2.26 2.23 2.15 1.98 1.98 1.98 2.01 2.14 2.07 2.03 1.97 1.98 2.25 2.56 2.59 2.79 3.05 2.91 2.66 2.39 2.56 2.71 2.95 3.03 2.72 2.47 2.33 2.18